STARLINK-11736, 64317

Orbit data source: Space-Track

STARLINK-11736, 64317 is a payload satellite owned by SpaceX/Seattle (US) in LEO that was launched on Tue, 10 Jun 2025 UTC via an FALCON 9 launch vehicle from the Air Force Eastern Test Range (AFETR). Payload-class satellites include a variety of spacecraft equipped with specific instruments for various scientific and technological missions. These include communications satellites like Starlink; space stations such as the ISS; scientific satellites like the Hubble; Earth observation satellites from companies like Planet Labs, Umbra, and HawkEye 360; GPS; miniature CubeSats for education and research; and military/defense satellites.

Loading next visibility...
Identifier
64317, 2025-124A
Orbit
LEO
Country
Flag of USUS
Related business
Manufacturer
SpaceX/Seattle
Mission
Operational Commercial Communications
Bus & Motor
STARLINK V2M, Unknown motor
Mass
730 kg wet, ~700 kg dry
Launch date (UTC)
2025-06-10 (3 months ago)
Launch vehicle
FALCON 9
Launch site
Air Force Eastern Test Range (AFETR)
Object type
Payload
Rocket body
Debris
Shape & HBR
Box + 2 Pan, 14.5 m
Radar Cross Section
36.964 m², Large (>1 m²)

Expand to show TLE details & history
Last TLE update: 6 hours ago

TLE from 6 hours ago
0 STARLINK-11736
1 64317U 25124A   25242.89278892  .00110215  00000-0  84801-3 0  9997
2 64317  42.9980  99.5815 0001612 258.9246 101.1441 15.70925980 12829
Epoch: 2025-08-30T21:25Z
TLE epoch observation values (Epoch: 2025-08-30T21:25:36.962Z)
Latitude
0.00001°
Longitude
158.85695°
Altitude
356.23 km
Speed
7.697 km/s
True Right ascension
06h 38m 19s
True Declination
0° 00' 00"
Sunlit
Object was in daylight at epoch
Visualization orbit readout
Latitude
Unknown
Longitude
Unknown
Altitude
Unknown
Speed
Unknown
Apparent Right ascension
Unknown
Apparent Declination
Unknown
Sunlit
N/A
Visualization observer readout
Local Sidereal Time
19:09:20
Azimuth
Unknown
Elevation
Unknown
Doppler factor
Unknown
Orbital elements
Apogee altitude
359.317 km
Perigee altitude
357.145 km
Semi-major axis
6,736.368 km
Eccentricity
0.00016
Inclination
42.998°
RAAN
99.5815°
Arg. of periapsis
258.9246°
True anomaly
101.16222°
Mean anomaly
101.1441°
Eccentric anomaly
101.15316°
Mean motion
3.92559 °/min
Orbital period
91.71 mins
BSTAR
0.00084801
Loading maneuver chart data...
Computing Atmospheric mass density...
Loading historical data...
Loading historical data...
Loading historical data...
Loading historical data...
Loading historical data...
Loading historical data...
Loading historical data...

Documentation

Showing up to 5 results
|